IV3CVE-H1 Weather Reports


time (UTC)temp
C
wind
direction
speed
KPH
gust
KPH
rain 1hr
cm
rain 24hr
cm
rain mn
cm
humidity
%
barometer
mb
20260507223515 13 40 6.4 12.9 0.00 0.33 0.33 88 1013.9
20260507222515 13 33 8.0 12.9 0.00 0.33 0.33 88 1013.8
20260507221515 13 23 6.4 11.3 0.00 0.33 0.33 89 1013.8
20260507220515 12 29 4.8 11.3 0.00 0.33 0.33 89 1013.9
20260507215517 12 33 6.4 9.7 0.00 0.33 0.33 89 1014.0
20260507214517 12 50 3.2 8.0 0.00 0.33 0.33 89 1013.9
20260507213517 12 50 4.8 8.0 0.00 0.33 0.33 89 1013.8
20260507212517 12 51 3.2 8.0 0.00 0.33 0.33 89 1013.7
20260507211516 12 47 3.2 8.0 0.00 0.33 0.33 90 1013.7
20260507210516 12 56 4.8 9.7 0.00 0.33 0.33 90 1013.6
20260507205516 12 46 6.4 8.0 0.00 0.33 0.33 90 1013.6
20260507204516 12 43 4.8 8.0 0.00 0.33 0.33 90 1013.4
20260507203516 13 40 4.8 6.4 0.00 0.33 0.33 90 1013.4
20260507202517 13 39 3.2 6.4 0.00 0.33 0.33 90 1013.3
20260507201516 13 39 1.6 4.8 0.00 0.33 0.33 90 1013.2
20260507200516 13 39 1.6 4.8 0.00 0.33 0.33 90 1013.0
20260507195515 13 37 3.2 6.4 0.00 0.33 0.33 90 1012.9
20260507194515 13 38 4.8 6.4 0.00 0.33 0.33 90 1012.9
20260507193515 13 26 4.8 6.4 0.00 0.33 0.33 89 1012.8
20260507192517 14 26 3.2 6.4 0.00 0.33 0.33 89 1012.7
20260507191538 14 38 1.6 3.2 0.00 0.33 0.33 89 1012.6
20260507190517 15 37 1.6 4.8 0.00 0.33 0.33 88 1012.5
20260507185516 15 34 1.6 4.8 0.00 0.33 0.33 88 1012.3
20260507184516 15 34 3.2 6.4 0.00 0.33 0.33 88 1012.2
20260507183516 15 44 1.6 8.0 0.00 0.33 0.33 87 1012.1
20260507182516 15 46 4.8 8.0 0.00 0.33 0.33 86 1012.0
20260507181515 16 37 4.8 9.7 0.00 0.33 0.33 85 1011.9
20260507180515 16 32 6.4 11.3 0.00 0.33 0.33 84 1011.8
20260507175515 16 24 4.8 12.9 0.00 0.33 0.33 83 1011.7
20260507174537 17 32 3.2 14.5 0.00 0.33 0.33 81 1011.6
20260507173537 17 34 6.4 11.3 0.00 0.33 0.33 80 1011.5
20260507172516 17 60 3.2 9.7 0.00 0.33 0.33 81 1011.5
20260507171516 17 57 3.2 8.0 0.00 0.33 0.33 80 1011.5
20260507170516 17 80 6.4 11.3 0.00 0.33 0.33 80 1011.5
20260507165516 18 95 1.6 11.3 0.00 0.33 0.33 79 1011.4
20260507164536 18 74 4.8 9.7 0.00 0.33 0.33 81 1011.4
20260507163517 18 73 3.2 14.5 0.00 0.33 0.33 80 1011.3
20260507162517 18 72 6.4 16.1 0.00 0.33 0.33 80 1011.3
20260507161516 18 73 9.7 16.1 0.03 0.33 0.33 79 1011.2
20260507160516 18 70 8.0 14.5 0.05 0.33 0.33 83 1011.2
20260507155516 17 97 3.2 9.7 0.33 0.36 0.33 84 1011.1
20260507154516 17 43 6.4 9.7 0.33 0.43 0.33 86 1011.0
20260507153556 17 57 4.8 11.3 0.33 0.43 0.33 87 1011.0
20260507152515 16 18 9.7 20.9 0.33 0.51 0.33 85 1011.0
20260507151517 18 14 8.0 25.7 0.30 0.58 0.30 79 1010.9
20260507150517 19 117 1.6 17.7 0.28 0.61 0.28 76 1010.8
20260507145537 20 126 4.8 25.7 0.00 0.38 0.00 72 1010.1
20260507144516 20 126 8.0 22.5 0.00 0.41 0.00 71 1009.9
20260507143516 20 125 8.0 22.5 0.00 0.41 0.00 70 1009.6
20260507142516 21 126 11.3 24.1 0.00 0.41 0.00 67 1009.8
20260507141536 21 132 8.0 19.3 0.00 0.41 0.00 62 1009.8
20260507140536 22 140 8.0 19.3 0.00 0.41 0.00 59 1009.9
20260507135515 23 141 8.0 17.7 0.00 0.41 0.00 58 1009.9
20260507134515 23 130 9.7 20.9 0.00 0.41 0.00 55 1009.9
20260507133558 23 133 6.4 20.9 0.00 0.41 0.00 55 1009.8
20260507132519 23 132 9.7 19.3 0.00 0.41 0.00 57 1009.9
20260507131517 23 140 8.0 22.5 0.00 0.41 0.00 58 1010.0
20260507130516 23 168 9.7 19.3 0.00 0.41 0.00 59 1010.1
20260507125516 23 155 9.7 20.9 0.00 0.41 0.00 57 1010.0
20260507124516 23 168 9.7 19.3 0.00 0.41 0.00 56 1010.0
20260507123515 23 143 8.0 17.7 0.00 0.43 0.00 52 1010.1
20260507122517 23 117 9.7 16.1 0.00 0.43 0.00 53 1010.1
20260507121517 22 184 9.7 16.1 0.00 0.43 0.00 57 1010.2
20260507120516 22 170 8.0 19.3 0.00 0.43 0.00 58 1010.2
20260507115516 21 143 3.2 20.9 0.00 0.43 0.00 58 1010.2
20260507114536 21 147 6.4 16.1 0.00 0.43 0.00 59 1010.3
20260507113515 22 95 6.4 12.9 0.00 0.43 0.00 62 1010.3
20260507112516 23 109 8.0 17.7 0.00 0.43 0.00 59 1010.4
20260507111535 22 105 4.8 12.9 0.00 0.43 0.00 61 1010.4
20260507110538 22 82 8.0 16.1 0.00 0.43 0.00 60 1010.5
20260507105517 22 117 6.4 14.5 0.00 0.43 0.00 59 1010.6
20260507104517 22 152 6.4 11.3 0.00 0.43 0.00 60 1010.6
20260507103517 22 54 4.8 12.9 0.00 0.46 0.00 67 1010.8
20260507102516 22 95 3.2 11.3 0.00 0.48 0.00 63 1010.9
20260507101517 22 149 4.8 12.9 0.00 0.48 0.00 66 1010.9
20260507100516 21 96 4.8 9.7 0.00 0.48 0.00 72 1011.0
20260507095516 21 86 3.2 9.7 0.00 0.51 0.00 70 1010.9
20260507094515 21 72 1.6 6.4 0.00 0.51 0.00 71 1010.9
20260507093515 21 85 3.2 9.7 0.00 0.51 0.00 71 1010.8
20260507092515 21 109 6.4 14.5 0.00 0.53 0.00 74 1010.8
20260507091517 21 104 3.2 9.7 0.00 0.53 0.00 70 1010.8
20260507090520 21 123 3.2 11.3 0.00 0.53 0.00 73 1010.8
20260507085517 20 23 3.2 9.7 0.00 0.53 0.00 72 1010.8
20260507084516 20 83 1.6 12.9 0.00 0.53 0.00 73 1010.8
20260507083536 20 74 3.2 9.7 0.00 0.53 0.00 74 1010.8
20260507082517 20 91 4.8 9.7 0.00 0.53 0.00 76 1010.7
20260507081517 19 76 0.0 8.0 0.00 0.56 0.00 75 1010.6
20260507080516 19 83 6.4 12.9 0.00 0.56 0.00 79 1010.6
20260507075516 18 92 3.2 8.0 0.00 0.56 0.00 79 1010.6
20260507074516 18 104 1.6 11.3 0.00 0.56 0.00 81 1010.5
20260507073516 18 62 4.8 9.7 0.00 0.58 0.00 82 1010.5
20260507072519 17 76 4.8 14.5 0.00 0.61 0.00 84 1010.5
20260507071516 17 47 4.8 12.9 0.00 0.61 0.00 86 1010.4
20260507070515 17 52 6.4 9.7 0.00 0.61 0.00 87 1010.4
20260507065515 17 25 3.2 11.3 0.00 0.61 0.00 89 1010.3
20260507064517 16 18 6.4 9.7 0.00 0.61 0.00 90 1010.3
20260507063517 16 30 6.4 11.3 0.00 0.61 0.00 88 1010.2
20260507062517 16 28 4.8 12.9 0.00 0.61 0.00 88 1010.1
20260507061517 16 28 4.8 12.9 0.00 0.61 0.00 88 1010.1
20260507060516 16 29 8.0 12.9 0.00 0.64 0.00 86 1010.0
20260507055517 15 33 8.0 14.5 0.00 0.64 0.00 85 1010.0
20260507054516 15 35 8.0 12.9 0.00 0.64 0.00 85 1009.8
20260507053516 15 55 6.4 12.9 0.00 0.69 0.00 85 1009.6
20260507052516 15 53 4.8 11.3 0.00 0.69 0.00 85 1009.5
20260507051535 15 33 1.6 6.4 0.00 0.69 0.00 85 1009.5
20260507050517 14 32 1.6 8.0 0.00 0.69 0.00 86 1009.4
20260507045517 14 58 4.8 8.0 0.00 0.69 0.00 85 1009.2
20260507044517 15 43 1.6 6.4 0.00 0.69 0.00 85 1009.1
20260507043516 15 45 0.0 3.2 0.00 0.69 0.00 85 1009.1
20260507042517 15 45 1.6 4.8 0.00 0.69 0.00 86 1009.0
20260507041515 15 43 4.8 6.4 0.00 0.69 0.03 85 1008.9
20260507040517 15 27 3.2 4.8 0.00 0.69 0.03 85 1008.8
20260507035517 15 22 1.6 6.4 0.03 0.69 0.03 85 1008.8
20260507034517 15 20 1.6 6.4 0.03 0.69 0.03 85 1008.8
20260507033517 15 20 1.6 4.8 0.03 0.69 0.03 85 1008.9
20260507032517 15 20 1.6 4.8 0.03 0.69 0.03 85 1008.8
20260507031516 15 20 0.0 3.2 0.03 0.69 0.03 85 1008.8
20260507030516 15 20 1.6 4.8 0.03 0.69 0.03 85 1008.9
20260507025515 15 20 1.6 4.8 0.00 0.66 0.00 85 1008.9
20260507024516 15 20 1.6 6.4 0.00 0.66 0.00 85 1008.8
20260507023515 15 20 1.6 3.2 0.00 0.66 0.00 85 1008.8
20260507022515 15 20 1.6 4.8 0.00 0.66 0.00 86 1008.8
20260507021517 15 20 3.2 4.8 0.00 0.66 0.00 86 1008.7
20260507020517 14 20 3.2 6.4 0.00 0.66 0.00 86 1008.7
20260507015516 14 20 1.6 4.8 0.00 0.66 0.00 86 1008.7
20260507014537 14 44 1.6 4.8 0.00 0.66 0.00 86 1008.7
20260507013516 15 45 3.2 6.4 0.00 0.66 0.00 86 1008.7
20260507012515 15 39 4.8 8.0 0.00 0.66 0.00 86 1008.7
20260507011516 14 35 4.8 8.0 0.00 0.66 0.00 86 1008.8
20260507010515 14 36 1.6 4.8 0.00 0.66 0.00 86 1008.9
20260507005556 14 36 3.2 6.4 0.00 0.66 0.00 87 1008.8
20260507004517 14 74 1.6 4.8 0.00 0.66 0.00 87 1008.8
20260507003518 14 73 0.0 3.2 0.00 0.66 0.00 87 1008.8
20260507002517 14 73 1.6 4.8 0.00 0.66 0.00 87 1008.8
20260507001515 15 73 0.0 1.6 0.00 0.66 0.00 87 1008.9
20260507000516 15 73 1.6 3.2 0.00 0.66 0.00 87 1008.9
20260506235515 15 74 1.6 6.4 0.00 0.66 0.00 87 1008.9
20260506234517 15 70 4.8 8.0 0.00 0.66 0.00 87 1008.8
20260506233518 15 71 4.8 8.0 0.00 0.66 0.00 87 1008.9
20260506232517 15 74 3.2 8.0 0.00 0.66 0.00 87 1008.9
20260506231516 15 59 4.8 6.4 0.00 0.66 0.00 87 1009.0
20260506230516 15 50 3.2 6.4 0.00 0.66 0.00 88 1009.0
20260506225536 15 57 3.2 8.0 0.00 0.66 0.00 88 1009.1